Temp
25 26 27 30 30 32 32 35 39 39 39 40 39 39 38 39 36 32 35 34 29 26 25 26 26 27 26 26 26 26 26 26 25 25 25 24 23 23 23 23 22 22 22 23 23 24 23 23 22
24 27 30 31 30 31 33 37 38 40 39 39 39 39 39 37 37 35 34 33 29 26 25 25 26 26 26 26 26 25 26 26 25 25 25 24 23 22 22 22 22 22 23 23 24 23 23 23 22
24 26 30 30 30 31 33 38 40 40 39 38 38 39 39 37 37 35 34 32 29 26 25 25 26 26 26 26 26 25 25 25 25 25 25 24 23 23 22 22 22 22 23 23 24 23 23 22 22
27 29 31 30 31 33 34 37 39 39 38 39 39 38 39 38 38 35 33 32 29 27 26 26 26 26 26 26 26 25 25 25 25 25 24 24 23 23 23 22 22 22 23 24 24 23 23 23 22
28 31 29 30 31 33 36 38 38 38 38 38 39 38 38 36 36 34 33 32 30 28 26 25 26 26 26 26 25 25 25 25 25 25 24 23 23 23 23 23 22 23 24 24 24 23 23 23 23
29 30 29 30 32 34 36 37 38 37 38 38 38 37 38 35 35 34 33 32 31 29 25 25 25 26 26 26 25 24 25 24 25 24 24 23 23 23 22 23 23 23 24 24 24 23 23 23 23
29 30 29 31 33 34 36 38 37 37 37 37 38 37 36 36 35 34 34 33 32 30 26 23 23 25 25 25 25 24 24 24 24 24 23 23 23 22 22 22 23 23 23 24 24 23 23 23 23
30 30 30 32 32 33 37 38 38 37 36 38 38 36 36 32 30 27 27 34 33 31 28 25 23 23 24 24 24 24 24 24 24 23 23 23 23 22 22 22 23 23 23 23 24 24 24 23 23
31 29 29 31 33 34 37 37 39 38 36 37 38 38 38 30 28 25 22 26 33 32 29 27 25 23 23 22 23 23 23 23 23 23 23 22 22 22 22 23 23 23 23 23 23 24 24 24 24
30 29 29 32 34 34 36 36 37 37 35 36 37 38 38 35 25 23 22 30 34 33 30 28 26 25 25 25 22 22 22 22 22 22 23 22 22 23 22 23 23 22 23 23 23 24 24 24 24
30 29 31 32 33 35 35 35 36 35 34 35 35 36 37 37 36 28 26 35 35 34 32 30 27 26 27 26 24 22 22 22 22 22 23 23 24 24 24 24 24 23 23 23 24 24 24 25 24
29 30 31 32 33 34 33 33 33 34 34 36 36 37 37 36 36 36 36 36 31 31 33 30 27 27 28 25 25 24 24 24 23 23 23 23 24 25 25 25 25 24 24 25 24 24 25 25 25
30 31 31 32 32 33 33 32 32 32 34 35 35 35 36 35 35 35 35 30 26 24 26 21 24 27 28 26 26 26 26 25 24 24 24 24 24 25 25 26 26 25 25 26 25 26 26 26 26
31 31 31 32 32 32 31 31 32 32 33 33 34 34 34 35 35 34 34 32 25 27 26 22 18 22 27 27 27 27 27 26 26 25 25 25 25 26 25 25 26 26 26 27 26 26 26 26 26
31 30 31 31 31 31 32 30 30 32 33 32 33 33 33 33 34 34 34 32 24 25 24 24 20 20 24 26 27 28 28 27 27 27 26 25 25 26 26 26 26 26 26 27 27 26 26 26 26
29 29 28 30 31 31 31 29 31 33 32 32 32 33 32 32 33 33 33 31 27 25 23 21 21 22 23 24 25 27 26 27 25 25 24 25 25 25 25 25 26 26 26 25 25 24 25 24 24
28 27 28 29 31 31 31 29 31 33 33 32 32 32 32 32 32 32 32 31 29 26 21 21 21 23 25 21 21 22 25 25 23 24 24 22 24 25 23 23 24 24 24 24 24 24 23 23 24
27 27 28 29 31 32 31 30 31 32 33 32 32 32 32 32 31 32 32 30 28 28 22 24 24 22 22 22 21 19 25 25 24 24 21 22 20 22 22 20 20 21 21 21 22 23 24 23 24
29 29 29 29 31 31 30 30 31 32 32 32 32 32 32 31 32 32 32 30 27 27 27 27 26 24 23 23 23 23 23 23 21 22 21 18 19 21 20 25 24 21 23 24 24 23 23 23 24
28 28 30 31 32 31 31 30 31 32 32 33 32 32 31 31 31 32 31 30 28 27 26 26 25 25 25 25 25 25 23 24 25 23 23 22 22 22 23 23 23 23 23 24 24 23 23 23 23
28 28 29 30 31 31 30 29 30 32 32 33 32 32 32 31 31 31 30 29 29 27 25 25 25 24 25 25 25 25 24 24 24 23 22 23 23 23 23 23 23 23 23 23 23 23 22 22 22
27 29 30 30 29 28 30 27 30 31 32 32 32 31 31 32 32 31 31 29 29 27 27 27 26 25 24 25 25 26 24 25 25 23 23 23 23 23 23 23 22 22 22 22 22 22 22 22 21
28 30 29 29 29 28 29 28 30 32 31 31 31 31 32 32 32 32 31 29 29 28 27 27 26 25 25 24 24 24 23 25 24 24 23 23 22 22 22 21 21 21 20 20 21 20 20 20 20
30 29 29 29 28 26 27 28 29 30 31 32 32 32 32 33 33 33 31 30 29 29 28 26 25 21 22 22 22 22 22 23 23 22 22 23 22 22 22 21 21 20 20 20 19 19 19 19 19
28 27 25 25 25 26 29 28 29 30 31 32 32 32 32 32 30 31 29 29 27 27 25 22 21 21 20 20 20 20 21 21 20 21 21 21 21 22 21 21 20 20 19 19 18 18 18 18 17
27 27 26 24 25 26 29 28 30 31 32 32 32 33 32 31 30 29 29 28 27 24 22 21 20 20 19 19 18 19 20 20 20 20 19 19 20 20 20 19 19 18 17 17 16 16 16 16 16
27 27 28 27 27 24 28 29 28 31 30 31 31 31 30 30 29 28 27 27 25 24 23 22 21 20 20 18 18 18 18 18 18 18 17 18 18 18 18 17 17 16 16 15 15 15 15 15 15
28 29 26 27 24 23 26 28 25 28 29 30 30 30 30 30 28 27 26 25 24 23 22 21 21 20 20 19 19 19 18 18 18 17 17 17 16 16 16 15 15 15 15 15 14 14 14 14 14
27 27 27 27 27 24 23 23 21 24 25 22 30 29 29 29 28 27 25 24 23 22 21 20 20 20 20 20 19 19 18 18 17 17 16 16 16 15 15 15 15 15 15 15 15 14 14 13 13
28 27 26 23 24 27 24 22 19 22 24 22 22 29 29 28 27 26 25 23 23 22 22 21 21 21 21 20 19 18 18 17 17 16 16 15 15 15 15 14 14 14 14 14 14 14 14 14 14
Height
771 772 773 769 782 765 766 745 710 709 712 691 693 705 711 703 718 752 720 725 729 736 742 746 751 755 759 764 769 772 775 778 781 784 788 790 793 795 798 800 801 802 804 806 808 809 811 813 815
771 772 770 763 780 778 758 723 719 700 696 696 699 701 708 718 701 713 716 726 731 737 742 746 751 755 759 763 768 772 776 779 782 785 788 791 794 797 799 801 803 804 805 807 809 810 812 814 816
770 770 769 768 770 772 754 712 700 692 691 700 706 697 703 713 703 712 721 725 732 736 742 745 750 754 758 762 767 771 775 779 782 785 788 791 794 797 800 802 804 805 806 807 809 811 813 815 817
768 766 762 769 765 744 736 711 698 701 700 697 700 712 697 699 703 713 721 726 732 739 743 744 747 752 756 760 764 769 774 778 782 785 788 790 792 795 798 801 804 805 807 808 809 811 813 815 816
765 755 768 763 757 738 717 703 697 704 706 701 698 711 706 703 707 714 722 726 733 740 742 745 747 749 752 757 761 766 770 775 780 784 787 790 793 795 797 799 802 804 806 808 809 810 812 814 815
761 755 766 764 749 728 716 702 699 705 704 706 705 709 704 706 711 715 719 725 732 738 743 744 746 747 748 751 756 761 766 772 776 781 785 788 792 794 797 798 800 802 804 807 809 810 811 813 814
757 754 760 751 740 727 714 698 705 704 707 710 700 713 705 704 708 716 718 720 723 729 738 744 748 748 750 751 755 759 764 769 774 778 781 786 789 792 796 798 799 801 803 805 807 808 809 811 812
749 748 751 739 740 731 701 692 689 697 708 699 697 715 715 710 713 725 733 725 727 725 733 743 748 752 753 755 758 762 765 768 773 777 780 782 785 788 792 796 798 800 801 803 805 806 807 808 809
740 755 751 741 732 721 698 699 682 683 701 700 694 698 701 710 717 732 732 716 722 727 729 739 745 751 754 756 756 761 765 769 772 776 779 781 783 786 788 793 796 798 799 800 802 804 805 806 807
740 747 742 724 715 713 700 697 691 696 703 707 699 694 698 704 719 728 730 721 712 718 726 732 739 748 753 757 759 763 766 768 771 774 777 780 782 783 786 788 792 795 797 798 799 801 802 803 803
732 734 725 719 711 701 701 700 692 699 712 703 706 702 697 699 701 714 715 701 703 710 718 729 739 746 748 748 751 758 762 768 772 774 776 778 779 781 783 785 787 789 792 794 796 797 798 799 799
734 722 723 718 707 705 709 704 708 705 706 697 694 694 693 696 698 698 695 695 702 707 707 721 727 735 737 740 746 751 757 763 767 770 773 774 777 776 778 780 782 784 787 789 792 793 793 794 794
722 718 714 711 708 706 707 713 715 713 704 700 698 696 696 699 703 703 702 707 715 713 721 729 734 735 731 741 746 746 749 754 761 765 768 771 771 775 776 777 779 779 782 784 786 788 789 790 789
711 711 710 708 707 707 713 713 713 710 705 704 703 701 699 698 699 706 705 707 710 709 722 715 704 733 736 745 747 752 752 754 758 761 764 768 770 772 775 775 775 777 777 780 782 784 785 785 785
707 715 708 705 707 707 705 717 712 704 701 704 705 703 702 701 700 703 705 708 713 713 715 708 732 724 745 752 755 756 754 753 756 759 759 768 773 773 775 775 776 777 777 780 780 780 782 783 787
714 713 723 704 703 701 707 721 702 694 697 700 700 699 701 701 702 704 705 708 712 715 721 732 726 732 750 752 755 759 753 750 755 756 762 766 775 774 774 774 772 772 772 775 777 781 780 782 790
713 726 721 714 691 694 701 713 697 688 688 692 694 696 696 699 700 703 704 705 711 715 727 732 737 734 737 753 757 751 758 755 757 764 763 761 766 766 770 772 771 767 770 771 775 777 779 778 781
719 721 711 705 686 676 693 700 693 684 685 685 687 690 692 693 696 699 701 704 710 715 721 726 729 732 735 745 747 738 759 759 759 764 768 771 765 747 759 774 775 769 771 759 766 773 776 777 777
698 698 701 693 677 680 693 695 688 681 683 683 681 686 689 690 691 695 697 704 710 716 719 721 725 731 735 741 748 754 755 757 758 762 763 755 750 758 762 772 766 767 768 765 772 775 776 778 779
698 698 688 675 668 679 686 694 684 678 676 674 675 680 684 686 688 688 692 703 711 718 721 722 726 732 733 741 741 750 753 752 756 762 764 764 764 767 770 769 772 766 770 772 772 774 774 777 780
695 697 688 684 673 674 686 699 690 675 668 666 670 673 675 680 684 684 689 698 707 713 720 725 728 730 734 736 734 743 749 752 758 761 761 761 762 767 767 769 770 768 773 774 773 773 773 775 776
696 679 680 682 691 706 682 715 680 670 669 668 670 674 674 673 676 679 683 693 702 708 716 720 724 727 732 733 735 737 746 752 749 753 754 757 762 767 768 769 772 772 771 769 768 771 773 775 775
682 671 682 684 691 695 692 704 676 657 669 669 668 670 669 668 671 676 679 687 696 707 714 718 721 724 729 732 735 736 743 745 753 748 750 757 762 762 768 766 767 767 766 765 765 767 769 772 770
666 676 678 685 693 714 699 699 686 672 662 659 659 663 665 664 666 670 674 685 697 705 713 717 720 726 727 730 735 740 737 741 749 752 754 758 764 759 761 761 762 761 763 764 765 766 767 769 768
670 685 707 716 712 711 684 694 679 665 661 652 654 658 660 663 671 670 680 693 701 708 714 721 723 727 732 731 741 742 740 746 751 755 756 758 757 760 759 758 757 759 762 762 762 763 765 766 766
671 680 696 716 713 700 676 690 671 654 652 652 652 650 657 666 673 683 689 695 705 716 723 728 731 732 734 736 743 744 744 748 752 753 756 757 760 759 756 757 758 759 760 760 760 763 762 762 762
669 678 668 684 682 711 680 670 667 656 656 660 661 659 664 669 676 688 695 700 709 720 727 732 735 738 739 741 745 747 747 751 752 755 755 756 758 758 757 757 759 759 757 758 759 758 759 758 756
653 655 687 678 709 718 690 680 700 678 669 665 667 668 667 670 680 693 701 708 717 725 731 735 740 744 746 746 747 750 750 753 755 756 758 758 758 759 757 756 755 752 754 756 755 757 755 753 752
661 667 666 670 676 705 716 710 699 689 684 697 665 665 669 674 682 693 706 717 724 732 737 741 745 747 747 747 749 752 754 755 757 758 758 758 758 755 754 754 754 753 751 753 752 751 749 747 746
646 656 668 694 693 674 693 713 701 694 691 689 682 663 669 678 688 698 710 720 727 732 738 742 746 747 748 750 753 754 756 758 758 756 757 755 755 754 753 749 749 746 748 748 747 744 745 741 740
Wind_Speed
15 13 13 17 7 8 16 19 21 20 6 3 11 5 13 13 9 13 15 19 32 30 29 27 25 23 21 19 17 16 16 16 16 16 14 14 15 15 15 14 13 12 12 10 8 9 9 9 9
11 13 17 8 11 13 15 21 21 16 12 7 4 4 10 8 18 13 14 25 27 28 29 26 25 23 21 19 18 18 18 17 17 16 15 14 15 15 14 13 12 11 10 8 8 9 9 9 7
12 13 9 7 15 17 17 21 17 9 10 3 2 6 8 15 11 10 21 29 27 27 27 25 25 23 22 20 19 19 19 18 18 18 16 16 16 16 14 13 11 10 9 7 8 8 8 8 6
7 6 7 13 21 22 25 25 24 9 2 6 5 2 9 7 7 14 20 27 26 25 25 27 27 24 21 20 20 22 21 20 19 18 17 17 17 17 16 13 11 8 7 7 8 8 8 7 5
17 8 10 16 24 26 23 24 23 7 11 3 7 3 7 11 14 19 21 25 24 25 24 28 28 25 23 21 21 24 24 22 21 19 17 17 17 17 16 14 12 9 7 7 9 8 7 6 5
9 11 14 18 23 24 24 26 24 7 6 11 7 7 7 15 14 19 22 22 23 26 21 27 28 26 24 23 24 26 25 23 21 20 18 16 16 16 16 14 12 10 8 8 8 8 7 7 6
18 14 18 22 22 22 23 21 20 18 15 16 9 16 8 14 21 19 23 23 26 27 23 25 26 25 24 24 26 27 26 24 21 21 18 17 16 16 15 14 12 11 9 8 8 9 9 8 8
14 14 24 22 19 25 22 20 22 26 12 12 17 9 6 5 14 17 23 22 23 28 25 24 24 23 24 23 24 25 24 23 22 20 19 18 17 17 17 15 13 11 10 9 9 9 9 10 10
20 15 17 25 25 19 19 21 15 7 8 17 17 17 5 21 21 20 9 35 24 25 30 27 26 25 23 21 25 24 23 23 22 21 19 18 17 19 17 16 13 12 11 10 9 9 9 10 11
19 16 26 22 21 22 20 21 23 6 9 18 16 11 14 7 33 31 27 34 28 27 30 32 33 28 27 22 22 21 20 22 22 21 21 18 18 17 18 16 17 15 13 11 11 10 10 12 12
23 23 20 22 25 23 16 17 13 9 13 14 12 15 16 15 13 27 41 28 20 28 30 32 33 30 30 29 26 23 21 20 20 18 18 20 18 22 18 21 18 17 16 15 13 13 15 14 10
24 25 23 24 24 13 14 14 15 14 12 16 13 14 13 5 7 13 15 17 9 5 29 38 40 36 33 34 30 27 25 23 22 22 21 19 20 20 19 19 20 17 16 16 16 18 16 13 11
25 23 23 22 20 22 11 17 17 20 17 17 16 18 16 9 8 15 16 9 8 12 6 20 6 34 32 32 28 29 29 29 25 26 25 20 19 20 19 19 20 23 18 19 16 18 15 16 16
22 23 21 23 21 19 20 18 18 20 18 17 17 17 18 16 12 15 17 4 7 6 11 16 34 21 17 8 23 26 24 27 26 28 29 25 23 21 20 16 12 10 10 13 19 19 16 19 19
22 18 22 20 21 23 16 23 25 20 19 20 20 16 18 18 14 12 16 6 14 14 16 18 45 35 7 14 5 17 16 22 22 21 30 25 23 15 17 16 16 14 14 14 13 11 10 14 15
19 21 21 20 20 23 20 23 20 21 21 22 21 18 18 18 17 18 24 15 13 18 27 27 17 29 27 14 16 14 9 16 12 7 12 23 18 15 16 13 11 10 9 7 5 5 10 17 10
17 18 23 23 24 23 25 22 18 18 15 16 17 18 17 17 18 23 26 17 13 16 23 29 36 44 21 13 12 16 11 9 3 12 5 3 13 19 7 11 11 11 7 11 6 6 10 14 18
20 21 20 20 22 19 20 19 15 15 13 13 13 14 15 17 17 21 24 21 24 15 33 30 28 28 26 21 9 6 18 14 9 10 16 17 30 13 10 18 14 13 10 3 4 5 3 10 15
22 22 22 18 21 20 17 14 17 18 17 18 14 12 13 15 15 25 20 24 28 23 20 22 27 27 26 22 19 17 17 15 13 13 16 5 19 11 26 19 11 18 3 2 4 1 3 10 15
24 25 23 18 22 11 13 14 16 17 16 15 11 11 13 14 16 17 22 23 26 23 19 19 19 21 19 15 11 4 13 11 11 13 15 17 16 13 8 5 3 6 2 3 3 4 7 9 11
23 24 19 14 8 9 9 13 17 17 16 11 9 7 10 12 15 15 16 23 18 24 24 20 16 15 12 12 12 7 1 9 2 5 10 7 4 8 10 8 5 1 1 2 4 6 7 8 12
23 22 19 12 12 13 18 14 20 21 18 13 11 8 11 15 16 15 15 19 23 27 26 19 20 20 13 13 10 10 8 9 7 7 9 11 9 6 4 3 3 2 4 5 6 10 11 11 15
20 19 18 16 13 12 16 10 15 10 14 15 12 12 11 13 17 18 19 23 24 21 21 15 9 9 11 9 9 12 12 9 11 10 12 7 4 5 3 3 3 2 5 6 9 12 13 16 16
16 17 19 16 14 14 18 16 15 4 16 16 17 15 13 10 12 12 16 23 19 13 12 4 12 11 11 11 9 10 14 12 12 12 8 5 6 6 2 1 1 3 7 12 14 15 17 20 22
19 17 9 12 12 13 16 17 13 12 5 7 16 16 14 10 12 9 19 13 15 10 14 12 16 16 15 17 13 13 17 15 11 8 9 8 9 7 8 7 6 9 11 13 17 20 22 23 24
23 17 12 17 14 14 20 19 12 14 12 5 4 12 14 12 14 10 10 13 20 17 12 11 11 14 15 16 13 12 13 9 9 6 3 3 5 8 9 13 14 14 14 15 16 18 20 22 25
20 20 21 17 9 5 7 6 6 2 12 8 10 9 12 11 14 15 11 14 22 19 17 16 14 12 14 14 11 9 9 5 5 4 5 6 7 9 9 14 18 19 20 20 19 20 23 24 23
23 20 18 14 16 11 12 14 7 8 14 13 14 12 12 15 18 16 11 16 20 16 16 17 13 11 11 10 8 7 6 4 2 4 6 8 11 13 13 14 16 17 19 20 20 22 22 22 22
16 16 13 9 12 6 6 5 5 3 10 15 17 14 13 16 18 17 16 19 18 17 13 12 10 10 8 7 6 4 2 3 5 6 9 11 13 15 16 17 18 19 20 21 22 23 23 24 25
21 20 18 7 13 12 6 3 9 12 4 11 14 15 15 18 16 16 16 17 18 17 15 10 7 5 6 4 3 3 4 5 7 9 11 13 15 16 17 17 19 19 21 22 23 24 25 25 25
Wind_Direction
267 265 265 265 258 229 252 253 247 268 244 27 68 358 333 312 55 111 110 110 123 138 155 153 152 153 157 160 162 164 163 158 156 156 152 148 146 144 143 139 135 129 122 119 116 115 113 113 109
260 254 250 269 250 250 247 242 259 270 98 68 353 278 245 75 99 123 106 127 131 143 151 158 158 158 161 166 169 171 170 165 163 161 159 157 156 154 148 144 142 134 129 123 122 122 123 122 116
250 251 254 235 238 245 256 257 237 276 78 93 228 260 328 88 56 103 128 133 139 146 151 166 163 163 165 169 172 175 174 170 169 168 167 163 164 161 156 153 152 143 136 134 135 131 132 135 126
223 234 240 249 244 234 245 268 288 260 146 259 243 290 230 101 116 118 146 140 139 151 158 167 165 166 168 172 173 175 177 175 173 173 172 170 170 168 168 168 166 155 151 151 150 146 148 153 158
225 240 228 234 239 252 252 247 261 274 247 290 229 240 285 105 122 129 151 144 148 157 164 166 166 168 169 173 175 176 176 177 177 176 176 176 175 175 176 174 174 172 170 168 166 166 171 178 188
212 230 243 234 244 241 247 266 279 223 276 275 276 252 251 128 137 145 154 152 155 154 154 169 171 171 170 172 175 176 177 179 178 179 179 180 181 181 182 179 179 178 176 178 181 181 190 198 207
236 222 233 247 255 244 240 236 254 260 242 251 251 267 133 163 147 154 158 162 159 154 156 166 170 175 173 172 175 177 178 179 181 182 182 183 185 186 189 188 186 181 181 184 192 198 206 215 222
228 249 249 238 249 255 263 246 219 236 219 247 265 271 247 78 100 7 351 163 165 158 158 168 170 173 171 173 176 180 181 181 183 185 186 186 187 190 191 195 196 193 192 194 202 211 219 228 236
226 242 244 246 248 247 261 273 259 140 219 244 242 229 213 115 120 144 288 287 170 167 158 171 175 178 173 171 177 183 186 186 185 186 190 192 189 191 194 199 202 206 205 206 212 222 233 241 247
225 228 239 248 255 260 265 262 267 207 218 244 250 253 220 137 131 151 207 235 177 171 165 172 174 177 179 173 181 178 181 183 183 187 192 192 182 197 193 198 205 215 219 221 224 232 243 248 254
225 238 242 243 259 271 278 297 304 265 238 247 234 248 249 228 221 173 199 204 194 178 176 173 168 178 182 169 175 171 180 182 184 188 200 183 193 199 192 201 206 212 222 230 231 235 243 248 243
231 230 243 262 273 268 278 284 290 289 261 258 272 257 241 182 243 230 248 227 24 277 177 170 167 178 186 166 166 172 178 184 186 190 197 191 202 196 190 198 205 208 207 222 220 237 239 226 227
233 238 237 246 259 270 251 257 256 260 264 270 276 277 272 191 235 284 289 37 70 55 152 39 249 177 188 163 167 177 181 181 188 189 192 196 201 199 200 205 208 205 199 216 204 219 232 220 229
240 236 242 244 250 242 258 251 247 247 258 258 254 258 268 279 218 250 278 234 110 164 229 268 297 272 180 198 169 183 184 180 193 187 191 198 203 200 195 207 219 235 228 220 210 214 221 232 239
261 254 244 245 242 255 239 250 243 247 250 238 242 242 258 272 268 248 273 355 152 184 198 210 214 35 313 253 255 204 198 179 189 201 192 193 206 214 201 199 202 216 225 239 253 265 281 282 276
243 244 251 228 238 237 235 248 246 237 235 238 242 232 232 251 260 258 264 115 147 175 176 186 199 194 192 227 252 206 228 197 204 193 158 187 204 218 216 219 218 219 211 184 189 224 250 276 298
224 235 233 248 242 220 218 241 246 251 255 230 223 234 229 225 235 238 255 128 106 176 170 167 162 168 215 240 260 239 228 228 292 252 193 235 202 205 242 230 243 228 215 215 217 258 265 296 313
215 226 240 238 234 228 217 221 240 259 250 233 231 231 229 224 234 235 238 137 127 129 167 158 177 188 181 195 163 286 226 235 226 276 237 226 262 241 292 278 322 311 290 189 299 225 284 294 297
243 230 221 239 262 189 209 249 235 227 224 243 219 211 234 221 223 234 204 150 134 144 145 147 145 160 166 167 180 186 206 228 211 197 161 191 282 151 184 223 190 214 238 33 154 209 326 321 317
235 251 247 218 216 218 207 231 250 241 243 236 231 208 216 214 228 231 186 151 139 142 139 140 137 149 150 158 165 185 225 223 214 184 171 177 176 181 197 180 167 123 157 38 21 285 276 275 295
229 240 248 258 177 245 238 254 252 253 247 223 216 229 227 209 214 227 169 160 183 134 129 127 139 144 155 140 121 101 83 333 334 145 149 138 142 160 140 138 185 85 298 312 309 313 250 258 270
225 226 244 230 241 234 209 242 236 221 222 200 195 205 211 213 200 214 185 166 161 148 157 142 147 155 158 149 148 156 177 217 158 152 140 129 146 127 94 162 197 206 217 241 288 302 301 290 280
231 213 228 243 248 253 260 267 278 163 199 183 184 189 215 195 185 193 212 154 166 162 182 193 154 149 154 152 147 166 185 158 155 146 137 117 150 155 183 170 207 266 294 289 287 291 290 285 285
211 237 209 218 228 231 236 252 260 268 195 192 178 190 199 199 186 189 146 149 161 161 174 160 158 110 119 109 134 131 99 119 116 108 128 163 218 200 162 90 278 297 293 298 297 293 291 287 281
215 216 202 216 226 235 227 236 251 136 248 320 166 171 190 140 67 108 120 126 123 146 115 101 106 105 97 100 106 103 109 92 85 75 51 25 14 8 11 332 309 292 289 284 283 285 281 284 284
206 204 222 204 213 224 224 229 247 182 175 117 138 162 158 125 124 108 108 129 130 113 115 115 105 108 100 94 85 84 77 85 75 73 58 40 322 314 312 316 304 302 297 295 295 289 286 285 281
199 212 225 259 285 302 270 219 86 221 124 152 144 138 121 135 114 111 115 118 122 133 137 137 124 114 104 96 88 73 71 62 41 11 347 338 314 298 296 286 291 294 297 293 291 291 287 283 285
223 201 216 233 237 222 237 222 160 214 165 177 151 155 150 132 123 121 126 109 110 117 114 112 120 111 113 106 97 90 55 37 358 330 307 295 293 288 292 296 298 301 296 291 289 283 282 284 286
222 233 216 241 232 182 237 269 322 185 339 330 162 154 135 133 126 123 111 109 113 111 109 112 129 141 116 97 82 70 26 342 315 296 292 288 291 299 298 295 293 292 293 288 285 284 285 281 279
219 217 203 222 253 230 181 182 314 291 229 2 357 149 141 127 125 126 123 136 139 140 138 110 87 110 109 91 66 11 329 305 299 299 295 298 293 292 293 296 292 295 293 292 288 286 279 279 280